loading
|

THOR ALTAIR DEB, 2177

Orbit data source: Space-Track

THOR ALTAIR DEB, 2177 is space debris in SSO originally from a launch on Thu, 31 Mar 1966 UTC launched from the Air Force Western Test Range (AFWTR). Debris objects in space refer to the collection of defunct objects orbiting the Earth. Examples of debris include non-operational satellites, rocket bodies, and fragments generated from explosions, collisions, or faulty payload assembly.

Loading next visibility...
Loading greatness...
THOR ALTAIR DEB details
Identifier
2177, 1966-026D
Orbit
SSO
Last TLE update11 hours ago
Origin
Flag of USUSAF SSD (US)
ManufacturerUnknown
MissionSpacecraft
Bus & MotorUnknown bus, Unknown motor
MassUnknown
Launch date (UTC)
1966-03-31 (59 years ago)
Launch vehicleUnknown
Launch site
Air Force Western Test Range (AFWTR)
Object type
Payload
Rocket body
Debris
Shape & HBRUnknown
Radar Cross SectionSmall (<0.1 m²)

Expand to show TLE details & history

TLE from 11 hours ago
0 THOR ALTAIR DEB
1 02177U 66026D   24278.54761922  .00012159  00000-0  16182-2 0  9994
2 02177  98.9155 191.9259 0145990 138.5175 222.7221 14.72644648 71204
Epoch: 2024-10-04T13:08Z
Definitive object data (Epoch: 2024-10-04T13:08:34.3Z)
Latitude-0.00005°
Longitude-18.93372°
Altitude731.72 km
Speed7.449 km/s
True Right ascension12h 47m 42s
True Declination0° 00' 00"
Sunlit
Object was in daylight at TLE epoch
Predictive object data (real-time)
Latitude-58.13526°
Longitude-3.88597°
Altitude773.567 km
Speed7.413 km/s
Apparent Right ascension09h 16m 02s
Apparent Declination-64° 26' 40"
Sunlit
Object is in daylight
Predictive observer data (real-time)
Local Sidereal Time18:13:09
Azimuth211.77° SW
Elevation-54.085°
Doppler factor1
Orbital elements
Apogee752.336 km
Perigee547.136 km
Semi-major axis7,027.873 km
Eccentricity0.014599
Inclination98.9155°
RAAN191.9259°
Arg. of periapsis138.5175°
True anomaly221.60221°
Mean anomaly222.7221°
Eccentric anomaly222.16066°
Mean motion3.6839 °/min
BSTAR0.0016182
Period97.72 mins
No data available

THOR ALTAIR DEB Visibility forecast

Observer location: 39.9160978°, -105.1181434

THOR ALTAIR DEB is not visible in the next 10 days
Span
Click to sort rows by Start time (UTC) header in descending order
Start Az.
Max El. time (UTC)
Max El. Az.
Max El.
End time (UTC)
End Az.